| time (UTC) | temp F | wind direction | speed MPH | gust MPH | rain 1hr in | rain 24hr in | rain mn in | humidity % | barometer mb |
| 20260507100346 | 49 | 41 | 1.0 | 8.0 | 0.00 | 0.58 | 0.24 | 90 | 1007.7 |
| 20260507094345 | 51 | 45 | 0.0 | 8.0 | 0.00 | 0.58 | 0.24 | 92 | 1007.3 |
| 20260507092345 | 49 | 84 | 0.0 | 8.0 | 0.00 | 0.60 | 0.24 | 94 | 1007.2 |
| 20260507090345 | 47 | 45 | 0.0 | 8.0 | 0.00 | 0.62 | 0.24 | 94 | 1007.1 |
| 20260507084344 | 48 | 54 | 1.0 | 8.0 | 0.00 | 0.64 | 0.24 | 95 | 1007.0 |
| 20260507082344 | 47 | 91 | 0.0 | 8.0 | 0.00 | 0.66 | 0.24 | 95 | 1006.9 |
| 20260507080344 | 46 | 65 | 0.0 | 8.0 | 0.02 | 0.68 | 0.24 | 95 | 1006.8 |
| 20260507074345 | 46 | 59 | 0.0 | 8.0 | 0.02 | 0.70 | 0.24 | 95 | 1006.6 |
| 20260507072343 | 46 | 45 | 0.0 | 8.0 | 0.02 | 0.72 | 0.24 | 95 | 1006.4 |
| 20260507070343 | 45 | 90 | 0.0 | 8.0 | 0.00 | 0.72 | 0.22 | 95 | 1006.2 |
| 20260507064343 | 45 | 51 | 0.0 | 8.0 | 0.00 | 0.74 | 0.22 | 96 | 1006.1 |
| 20260507062343 | 45 | 46 | 0.0 | 8.0 | 0.00 | 0.77 | 0.22 | 96 | 1005.8 |
| 20260507060342 | 44 | 53 | 0.0 | 8.0 | 0.00 | 0.81 | 0.22 | 96 | 1005.5 |
| 20260507054342 | 44 | 68 | 0.0 | 8.0 | 0.02 | 0.83 | 0.22 | 96 | 1005.3 |
| 20260507052342 | 44 | 7 | 0.0 | 8.0 | 0.02 | 0.85 | 0.22 | 96 | 1005.0 |
| 20260507050341 | 44 | 68 | 0.0 | 8.0 | 0.02 | 0.89 | 0.22 | 96 | 1004.9 |
| 20260507044341 | 44 | 40 | 0.0 | 8.0 | 0.02 | 0.89 | 0.20 | 96 | 1004.6 |
| 20260507042341 | 44 | 45 | 0.0 | 8.0 | 0.02 | 0.91 | 0.20 | 96 | 1004.3 |
| 20260507040341 | 44 | 45 | 0.0 | 8.0 | 0.02 | 0.95 | 0.20 | 95 | 1004.2 |
| 20260507034340 | 45 | 50 | 0.0 | 8.0 | 0.00 | 0.95 | 0.18 | 95 | 1003.9 |
| 20260507032340 | 45 | 46 | 0.0 | 8.0 | 0.02 | 0.97 | 0.18 | 95 | 1003.8 |
| 20260507030340 | 45 | 49 | 0.0 | 8.0 | 0.02 | 0.99 | 0.18 | 95 | 1003.6 |
| 20260507024339 | 46 | 64 | 0.0 | 8.0 | 0.02 | 1.01 | 0.18 | 95 | 1003.4 |
| 20260507022339 | 46 | 45 | 0.0 | 8.0 | 0.00 | 1.01 | 0.16 | 95 | 1003.5 |
| 20260507020339 | 46 | 45 | 0.0 | 8.0 | 0.02 | 1.01 | 0.16 | 95 | 1003.2 |
| 20260507014339 | 46 | 60 | 0.0 | 8.0 | 0.06 | 1.01 | 0.16 | 95 | 1003.2 |
| 20260507012338 | 46 | 56 | 0.0 | 8.0 | 0.08 | 1.01 | 0.16 | 95 | 1003.1 |
| 20260507010338 | 46 | 55 | 0.0 | 8.0 | 0.08 | 0.99 | 0.14 | 95 | 1003.1 |
| 20260507004338 | 46 | 22 | 0.0 | 8.0 | 0.06 | 0.95 | 0.10 | 95 | 1003.0 |
| 20260507002337 | 46 | 22 | 0.0 | 8.0 | 0.06 | 0.93 | 0.08 | 95 | 1002.6 |
| 20260507000337 | 46 | 22 | 0.0 | 8.0 | 0.06 | 0.91 | 0.06 | 95 | 1002.6 |
| 20260506234337 | 46 | 14 | 0.0 | 8.0 | 0.04 | 0.89 | 0.04 | 95 | 1002.5 |
| 20260506232337 | 46 | 22 | 0.0 | 8.0 | 0.02 | 0.87 | 0.02 | 95 | 1002.3 |
| 20260506230336 | 46 | 13 | 0.0 | 7.0 | 0.00 | 0.85 | 0.00 | 95 | 1002.3 |
| 20260506224336 | 46 | 53 | 1.0 | 7.0 | 0.00 | 0.85 | 0.00 | 95 | 1002.3 |
| 20260506222336 | 46 | 41 | 0.0 | 7.0 | 0.00 | 0.85 | 0.00 | 95 | 1002.3 |
| 20260506220335 | 47 | 68 | 1.0 | 4.0 | 0.00 | 0.85 | 0.00 | 95 | 1002.2 |
| 20260506214335 | 47 | 72 | 2.0 | 10.0 | 0.06 | 0.85 | 0.85 | 95 | 1001.9 |
| 20260506212337 | 47 | 44 | 0.0 | 10.0 | 0.04 | 0.83 | 0.83 | 95 | 1001.8 |
| 20260506210335 | 47 | 45 | 1.0 | 10.0 | 0.04 | 0.81 | 0.81 | 95 | 1001.8 |
| 20260506204334 | 47 | 1 | 1.0 | 10.0 | 0.04 | 0.79 | 0.79 | 95 | 1001.5 |
| 20260506202334 | 47 | 44 | 0.0 | 10.0 | 0.04 | 0.79 | 0.79 | 95 | 1001.4 |
| 20260506200334 | 47 | 31 | 2.0 | 10.0 | 0.02 | 0.77 | 0.77 | 95 | 1001.4 |
| 20260506194333 | 48 | 18 | 0.0 | 10.0 | 0.00 | 0.75 | 0.75 | 95 | 1001.1 |
| 20260506192333 | 48 | 35 | 0.0 | 10.0 | 0.02 | 0.75 | 0.75 | 95 | 1000.8 |
| 20260506190333 | 48 | 6 | 0.0 | 10.0 | 0.06 | 0.75 | 0.75 | 95 | 1000.6 |
| 20260506184333 | 48 | 22 | 0.0 | 10.0 | 0.08 | 0.75 | 0.75 | 95 | 1000.4 |
| 20260506182333 | 49 | 45 | 0.0 | 10.0 | 0.08 | 0.73 | 0.73 | 95 | 1000.1 |
| 20260506180332 | 49 | 22 | 1.0 | 10.0 | 0.04 | 0.69 | 0.69 | 95 | 1000.2 |
| 20260506174332 | 49 | 22 | 0.0 | 10.0 | 0.02 | 0.67 | 0.67 | 95 | 1000.2 |
| 20260506172331 | 49 | 45 | 0.0 | 10.0 | 0.04 | 0.64 | 0.64 | 95 | 999.9 |
| 20260506170331 | 49 | 22 | 0.0 | 10.0 | 0.06 | 0.64 | 0.64 | 95 | 999.7 |
| 20260506164331 | 49 | 45 | 0.0 | 10.0 | 0.06 | 0.64 | 0.64 | 95 | 999.7 |
| 20260506162331 | 49 | 31 | 0.0 | 10.0 | 0.04 | 0.60 | 0.60 | 95 | 999.8 |
| 20260506160330 | 49 | 22 | 0.0 | 10.0 | 0.04 | 0.58 | 0.58 | 95 | 999.8 |
| 20260506154330 | 49 | 45 | 0.0 | 10.0 | 0.04 | 0.58 | 0.58 | 94 | 999.8 |
| 20260506152330 | 49 | 22 | 0.0 | 10.0 | 0.02 | 0.56 | 0.56 | 94 | 999.8 |
| 20260506150329 | 49 | 22 | 0.0 | 10.0 | 0.00 | 0.54 | 0.54 | 94 | 999.8 |
| 20260506144329 | 49 | 39 | 1.0 | 10.0 | 0.00 | 0.54 | 0.54 | 94 | 999.9 |
| 20260506142329 | 49 | 51 | 1.0 | 10.0 | 0.02 | 0.54 | 0.54 | 94 | 999.9 |
| 20260506140329 | 49 | 48 | 1.0 | 10.0 | 0.02 | 0.54 | 0.54 | 94 | 999.9 |
| 20260506134328 | 49 | 55 | 1.0 | 10.0 | 0.02 | 0.54 | 0.54 | 94 | 999.9 |
| 20260506132328 | 49 | 53 | 0.0 | 10.0 | 0.00 | 0.52 | 0.52 | 94 | 1000.0 |
| 20260506130328 | 49 | 44 | 0.0 | 10.0 | 0.00 | 0.52 | 0.52 | 94 | 1000.0 |
| 20260506124327 | 49 | 58 | 0.0 | 10.0 | 0.00 | 0.52 | 0.52 | 94 | 1000.0 |
| 20260506122327 | 49 | 56 | 0.0 | 10.0 | 0.00 | 0.52 | 0.52 | 94 | 999.9 |
| 20260506120327 | 49 | 62 | 0.0 | 10.0 | 0.00 | 0.52 | 0.52 | 94 | 999.7 |
| 20260506114327 | 49 | 45 | 1.0 | 8.0 | 0.00 | 0.52 | 0.52 | 94 | 999.9 |
| 20260506112326 | 49 | 46 | 1.0 | 8.0 | 0.00 | 0.52 | 0.52 | 94 | 999.8 |
| 20260506110327 | 49 | 45 | 1.0 | 8.0 | 0.02 | 0.52 | 0.52 | 94 | 999.7 |
| 20260506104326 | 48 | 45 | 0.0 | 8.0 | 0.02 | 0.54 | 0.52 | 94 | 999.7 |
| 20260506102325 | 48 | 47 | 1.0 | 8.0 | 0.04 | 0.54 | 0.52 | 94 | 999.6 |